Tracking 33094 objects as of 25-Jan-2026
HD Live streaming from Space Station
objects crossing your sky now

STARLINK-5830

Track STARLINK-5830 now!
10-day predictions
STARLINK-5830 is classified as:


NORAD ID: 57065
Int'l Code: 2023-088T
Perigee: 564.2 km
Apogee: 568.2 km
Inclination: 43.0 °
Period: 95.8 minutes
Semi major axis: 6937 km
RCS: Unknown
Launch date: June 22, 2023
Source: United States (US)
Launch site: AIR FORCE WESTERN TEST RANGE (AFWTR)
Your satellite tracking list
Your tracking list is empty




NASA's NSSDC Master Catalog

Two Line Element Set (TLE):
1 57065U 23088T   26024.87131782  .00001678  00000-0  13926-3 0  9991
2 57065  43.0044 345.9537 0002847 282.5794  77.4730 15.02545117142796
Source of the keplerian elements: AFSPC